User: anonymous   Login
Location: Killarney Provincial Park Observatory
(46.0124°N, 81.4000°W)
Time: 18:55:23
(UTC-04:00)
Language:

Iridium 22 - Orbit

View from above orbital plane
View from above orbital plane
View from above satellite
View from above satellite

Ground track
Ground track

The orbit data is extracted from the following two-line orbital elements,

1 24907U 97043E   14304.48939999  .00000289  00000-0  96084-4 0   370
2 24907 086.3936 297.1485 0002205 105.1800 067.3016 14.34224834900275
Epoch (UTC): 31 October 2014 11:44:44
Eccentricity: 0.0002205
inclination: 86.3936°
perigee height: 776 km
apogee height: 779 km
right ascension of ascending node: 297.1485°
argument of perigee: 105.1800°
revolutions per day: 14.34224834
mean anomaly at epoch: 67.3016°
orbit number at epoch: 90027

The dashed part of the orbit path shows where the satellite is in the earth's shadow,  

DLR